timestamp,wind_dir_avg,wind_spd_avg,wind_spd_max_dir,wind_spd_gust,battery_voltage,lat,long
2022-03-19 00:04:01+00:00,210.0,1.41,215.0,1.68,12.17,47.59359,-54.27349
2022-03-19 00:14:01+00:00,249.0,2.15,253.0,2.37,12.17,47.59359,-54.27349
2022-03-19 00:24:01+00:00,267.0,1.7,263.0,2.01,12.17,47.59359,-54.27349
2022-03-19 00:34:01+00:00,280.0,1.38,285.0,1.48,12.17,47.59359,-54.27349
2022-03-19 00:44:01+00:00,289.0,1.11,289.0,1.17,12.17,47.59359,-54.27349
2022-03-19 00:54:01+00:00,283.0,2.08,276.0,3.96,12.17,47.59359,-54.27349
2022-03-19 01:04:01+00:00,259.0,1.05,264.0,1.16,12.17,47.59359,-54.27349
2022-03-19 01:14:01+00:00,263.0,0.84,258.0,0.92,12.09,47.59359,-54.27349
2022-03-19 01:24:01+00:00,277.0,2.94,276.0,4.44,12.09,47.59359,-54.27349
2022-03-19 01:34:01+00:00,261.0,2.39,268.0,5.28,12.09,47.59359,-54.27349
2022-03-19 01:44:01+00:00,200.0,0.56,195.0,1.05,12.09,47.59359,-54.27349
2022-03-19 01:54:01+00:00,233.0,1.57,251.0,2.97,12.09,47.59359,-54.27349
2022-03-19 02:04:01+00:00,267.0,3.19,271.0,5.34,12.09,47.59359,-54.27349
2022-03-19 02:14:01+00:00,288.0,2.28,281.0,5.31,12.09,47.59359,-54.27349
2022-03-19 02:24:01+00:00,299.0,6.47,300.0,7.34,12.09,47.59359,-54.27349
2022-03-19 02:34:01+00:00,318.0,5.6,310.0,6.56,12.09,47.59359,-54.27349
2022-03-19 02:44:01+00:00,313.0,5.65,307.0,7.64,12.09,47.59359,-54.27349
2022-03-19 02:54:01+00:00,308.0,5.84,304.0,6.7,12.09,47.59359,-54.27349
2022-03-19 03:04:01+00:00,309.0,6.33,313.0,7.29,12.09,47.59359,-54.27349
2022-03-19 03:14:00+00:00,323.0,4.85,304.0,6.71,12.09,47.59359,-54.27349
2022-03-19 03:24:00+00:00,317.0,6.13,320.0,7.39,12.09,47.59359,-54.27349
2022-03-19 03:34:00+00:00,321.0,6.4,317.0,8.77,12.09,47.59359,-54.27349
2022-03-19 03:44:00+00:00,346.0,5.79,319.0,7.67,12.09,47.59359,-54.27349
2022-03-19 03:54:00+00:00,317.0,7.22,324.0,9.27,12.09,47.59359,-54.27349
2022-03-19 04:04:00+00:00,329.0,9.1,328.0,10.74,12.09,47.59359,-54.27349
2022-03-19 04:14:00+00:00,330.0,9.29,325.0,10.93,12.09,47.59359,-54.27349
2022-03-19 04:24:00+00:00,332.0,9.53,334.0,11.34,12.09,47.59359,-54.27349
2022-03-19 04:34:00+00:00,332.0,9.1,327.0,10.82,12.09,47.59359,-54.27349
2022-03-19 04:44:00+00:00,334.0,9.75,336.0,11.89,12.09,47.59359,-54.27349
2022-03-19 04:54:00+00:00,333.0,9.88,331.0,11.5,12.09,47.59359,-54.27349
2022-03-19 05:04:00+00:00,336.0,9.72,337.0,10.83,12.09,47.59359,-54.27349
2022-03-19 05:14:00+00:00,353.0,11.35,353.0,12.82,12.09,47.59359,-54.27349
2022-03-19 05:24:00+00:00,351.0,11.11,346.0,12.74,12.09,47.59359,-54.27349
2022-03-19 05:34:00+00:00,355.0,10.62,1.0,12.43,12.09,47.59359,-54.27349
2022-03-19 05:44:00+00:00,351.0,10.37,347.0,11.81,12.09,47.59359,-54.27349
2022-03-19 05:54:00+00:00,0.0,6.75,359.0,7.98,12.09,47.59359,-54.27349
2022-03-19 06:04:00+00:00,358.0,6.01,358.0,6.64,12.09,47.59359,-54.27349
2022-03-19 06:14:01+00:00,356.0,8.8,358.0,10.0,12.09,47.59359,-54.27349
2022-03-19 06:24:01+00:00,353.0,8.22,352.0,9.58,12.09,47.59359,-54.27349
2022-03-19 06:34:01+00:00,0.0,10.63,3.0,12.55,12.09,47.59359,-54.27349
2022-03-19 06:44:01+00:00,0.0,9.54,4.0,10.9,12.09,47.59359,-54.27349
2022-03-19 06:54:01+00:00,357.0,9.55,357.0,10.78,12.09,47.59359,-54.27349
2022-03-19 07:04:01+00:00,359.0,8.41,353.0,9.47,12.09,47.59359,-54.27349
2022-03-19 07:14:01+00:00,357.0,10.57,350.0,12.2,12.09,47.59359,-54.27349
2022-03-19 07:24:01+00:00,358.0,11.71,350.0,14.09,12.09,47.59359,-54.27349
2022-03-19 07:34:01+00:00,4.0,11.37,349.0,13.58,12.09,47.59359,-54.27349
2022-03-19 07:44:01+00:00,4.0,10.37,2.0,11.7,12.09,47.59359,-54.27349
2022-03-19 07:54:01+00:00,6.0,11.36,6.0,12.32,12.09,47.59359,-54.27349
2022-03-19 08:04:01+00:00,2.0,11.92,9.0,13.26,12.09,47.59359,-54.27349
2022-03-19 08:14:01+00:00,3.0,11.93,8.0,13.68,12.09,47.59359,-54.27349
2022-03-19 08:24:01+00:00,7.0,10.14,8.0,11.47,12.09,47.59359,-54.27349
2022-03-19 08:34:01+00:00,5.0,9.41,9.0,10.98,12.09,47.59359,-54.27349
2022-03-19 08:44:01+00:00,5.0,12.15,9.0,13.56,12.09,47.59359,-54.27349
2022-03-19 08:54:01+00:00,2.0,8.8,11.0,10.46,12.09,47.59359,-54.27349
2022-03-19 09:04:01+00:00,0.0,11.09,8.0,12.44,12.09,47.59359,-54.27349
2022-03-19 09:14:01+00:00,356.0,10.16,349.0,11.72,12.09,47.59359,-54.27349
2022-03-19 09:24:01+00:00,1.0,10.94,359.0,12.22,12.09,47.59359,-54.27349
2022-03-19 09:34:01+00:00,355.0,10.12,348.0,11.33,12.09,47.59359,-54.27349
2022-03-19 09:44:01+00:00,352.0,9.65,317.0,12.47,12.09,47.59359,-54.27349
2022-03-19 09:54:01+00:00,2.0,8.61,14.0,9.88,12.09,47.59359,-54.27349
2022-03-19 10:04:01+00:00,3.0,11.96,6.0,13.29,12.09,47.59359,-54.27349
2022-03-19 10:14:00+00:00,355.0,10.39,0.0,11.65,12.09,47.59359,-54.27349
2022-03-19 10:24:00+00:00,357.0,9.79,341.0,12.63,12.09,47.59359,-54.27349
2022-03-19 10:34:00+00:00,1.0,11.39,8.0,12.84,12.09,47.59359,-54.27349
2022-03-19 10:44:00+00:00,1.0,10.83,359.0,12.14,12.09,47.59359,-54.27349
2022-03-19 10:54:00+00:00,351.0,9.37,347.0,10.57,12.09,47.59359,-54.27349
2022-03-19 11:04:00+00:00,1.0,6.28,355.0,7.67,12.09,47.59359,-54.27349
2022-03-19 11:14:00+00:00,0.0,6.86,359.0,7.8,13.37,47.59359,-54.27349
2022-03-19 11:24:00+00:00,357.0,6.01,2.0,7.01,13.37,47.59359,-54.27349
2022-03-19 11:34:00+00:00,2.0,6.69,354.0,8.79,13.37,47.59359,-54.27349
2022-03-19 11:44:00+00:00,358.0,6.97,359.0,8.57,13.37,47.59359,-54.27349
2022-03-19 11:54:00+00:00,350.0,6.99,335.0,8.14,13.37,47.59359,-54.27349
2022-03-19 12:04:00+00:00,351.0,9.87,344.0,11.92,13.37,47.59359,-54.27349
2022-03-19 12:14:01+00:00,347.0,9.65,348.0,11.21,13.44,47.59359,-54.27349
2022-03-19 12:24:01+00:00,343.0,12.3,345.0,13.82,13.44,47.59359,-54.27349
2022-03-19 12:34:01+00:00,349.0,11.04,351.0,12.59,13.44,47.59359,-54.27349
2022-03-19 12:44:01+00:00,345.0,10.15,338.0,11.6,13.44,47.59359,-54.27349
2022-03-19 12:54:01+00:00,346.0,11.93,346.0,13.69,13.44,47.59359,-54.27349
2022-03-19 13:04:01+00:00,1.0,8.22,359.0,9.21,13.44,47.59359,-54.27349
2022-03-19 13:14:00+00:00,355.0,7.67,356.0,8.56,13.92,47.59359,-54.27349
2022-03-19 13:24:00+00:00,354.0,8.24,355.0,9.08,13.92,47.59359,-54.27349
2022-03-19 13:34:00+00:00,358.0,7.28,4.0,8.17,13.92,47.59359,-54.27349
2022-03-19 13:44:00+00:00,358.0,8.07,0.0,9.18,13.92,47.59359,-54.27349
2022-03-19 13:54:00+00:00,356.0,10.04,356.0,11.84,13.92,47.59359,-54.27349
2022-03-19 14:04:00+00:00,353.0,8.91,350.0,10.27,13.92,47.59359,-54.27349
2022-03-19 14:14:00+00:00,356.0,9.28,356.0,10.91,13.6,47.59359,-54.27349
2022-03-19 14:24:00+00:00,359.0,12.17,0.0,14.08,13.6,47.59359,-54.27349
2022-03-19 14:34:00+00:00,357.0,10.79,5.0,13.28,13.6,47.59359,-54.27349
2022-03-19 14:44:00+00:00,350.0,9.13,355.0,11.25,13.6,47.59359,-54.27349
2022-03-19 14:54:00+00:00,0.0,9.78,358.0,11.04,13.6,47.59359,-54.27349
2022-03-19 15:04:00+00:00,346.0,10.59,334.0,11.92,13.6,47.59359,-54.27349
2022-03-19 15:14:00+00:00,355.0,10.91,345.0,11.99,14.08,47.59359,-54.27349
2022-03-19 15:24:00+00:00,357.0,10.13,343.0,12.37,14.08,47.59359,-54.27349
2022-03-19 15:34:00+00:00,342.0,7.12,334.0,8.28,14.08,47.59359,-54.27349
2022-03-19 15:44:00+00:00,356.0,8.58,355.0,9.53,14.08,47.59359,-54.27349
2022-03-19 15:54:00+00:00,357.0,10.97,356.0,12.35,14.08,47.59359,-54.27349
2022-03-19 16:04:00+00:00,345.0,9.01,328.0,10.9,14.08,47.59359,-54.27349
2022-03-19 16:14:00+00:00,358.0,11.2,359.0,12.57,14.4,47.59359,-54.27349
2022-03-19 16:24:00+00:00,350.0,9.29,346.0,12.47,14.4,47.59359,-54.27349
2022-03-19 16:34:00+00:00,0.0,8.96,11.0,10.12,14.4,47.59359,-54.27349
2022-03-19 16:44:00+00:00,345.0,10.12,342.0,11.54,14.4,47.59359,-54.27349
2022-03-19 16:54:00+00:00,8.0,10.25,9.0,11.22,14.4,47.59359,-54.27349
2022-03-19 17:04:00+00:00,8.0,9.6,10.0,10.59,14.4,47.59359,-54.27349
2022-03-19 17:14:00+00:00,7.0,9.09,5.0,10.35,13.6,47.59359,-54.27349
2022-03-19 17:24:00+00:00,8.0,10.78,11.0,11.99,13.6,47.59359,-54.27349
2022-03-19 17:34:00+00:00,0.0,9.29,1.0,10.58,13.6,47.59359,-54.27349
2022-03-19 17:44:00+00:00,3.0,7.66,16.0,8.79,13.6,47.59359,-54.27349
2022-03-19 17:54:00+00:00,332.0,7.51,335.0,8.67,13.6,47.59359,-54.27349
2022-03-19 18:04:00+00:00,344.0,8.06,338.0,9.65,13.6,47.59359,-54.27349
2022-03-19 18:14:00+00:00,7.0,7.87,10.0,9.22,14.4,47.59359,-54.27349
2022-03-19 18:24:00+00:00,6.0,8.77,6.0,9.79,14.4,47.59359,-54.27349
2022-03-19 18:34:00+00:00,2.0,6.15,1.0,6.89,14.4,47.59359,-54.27349
2022-03-19 18:44:00+00:00,17.0,6.43,19.0,7.22,14.4,47.59359,-54.27349
2022-03-19 18:54:00+00:00,20.0,4.89,24.0,5.74,14.4,47.59359,-54.27349
2022-03-19 19:04:00+00:00,0.0,6.13,330.0,7.29,14.4,47.59359,-54.27349
2022-03-19 19:14:01+00:00,354.0,6.83,4.0,7.8,13.92,47.59359,-54.27349
2022-03-19 19:24:01+00:00,353.0,6.51,353.0,7.64,13.92,47.59359,-54.27349
2022-03-19 19:34:01+00:00,341.0,7.13,335.0,8.38,13.92,47.59359,-54.27349
2022-03-19 19:44:01+00:00,350.0,7.62,356.0,8.91,13.92,47.59359,-54.27349
2022-03-19 19:54:01+00:00,349.0,7.54,346.0,8.96,13.92,47.59359,-54.27349
2022-03-19 20:04:01+00:00,343.0,5.85,343.0,6.34,13.92,47.59359,-54.27349
2022-03-19 20:14:01+00:00,352.0,7.92,350.0,8.69,13.84,47.59359,-54.27349
2022-03-19 20:24:01+00:00,341.0,5.95,344.0,7.11,13.84,47.59359,-54.27349
2022-03-19 20:34:01+00:00,353.0,7.15,353.0,7.81,13.84,47.59359,-54.27349
2022-03-19 20:44:01+00:00,354.0,6.04,352.0,6.94,13.84,47.59359,-54.27349
2022-03-19 20:54:01+00:00,347.0,4.29,349.0,4.95,13.84,47.59359,-54.27349
2022-03-19 21:04:01+00:00,353.0,5.32,352.0,6.56,13.84,47.59359,-54.27349
2022-03-19 21:14:01+00:00,352.0,5.36,351.0,5.72,13.29,47.59359,-54.27349
2022-03-19 21:24:01+00:00,346.0,4.24,345.0,4.81,13.29,47.59359,-54.27349
2022-03-19 21:34:01+00:00,316.0,5.29,316.0,5.69,13.29,47.59359,-54.27349
2022-03-19 21:44:01+00:00,318.0,4.23,322.0,4.74,13.29,47.59359,-54.27349
2022-03-19 21:54:01+00:00,306.0,3.22,306.0,3.42,13.29,47.59359,-54.27349
2022-03-19 22:04:01+00:00,301.0,4.29,300.0,4.98,13.29,47.59359,-54.27349
2022-03-19 22:14:01+00:00,310.0,4.87,309.0,5.55,12.65,47.59359,-54.27349
2022-03-19 22:24:01+00:00,300.0,4.24,304.0,4.91,12.65,47.59359,-54.27349
2022-03-19 22:34:01+00:00,307.0,4.23,315.0,4.89,12.65,47.59359,-54.27349
2022-03-19 22:44:01+00:00,315.0,4.61,317.0,5.74,12.65,47.59359,-54.27349
2022-03-19 22:54:01+00:00,291.0,2.84,290.0,3.05,12.65,47.59359,-54.27349
2022-03-19 23:04:01+00:00,302.0,5.01,286.0,6.29,12.65,47.59359,-54.27349
2022-03-19 23:14:01+00:00,302.0,6.03,290.0,9.51,12.49,47.59359,-54.27349
2022-03-19 23:24:01+00:00,313.0,5.77,299.0,9.04,12.49,47.59359,-54.27349
2022-03-19 23:34:01+00:00,318.0,4.67,322.0,5.19,12.49,47.59359,-54.27349
2022-03-19 23:44:01+00:00,323.0,5.3,323.0,5.85,12.49,47.59359,-54.27349
2022-03-19 23:54:01+00:00,324.0,5.88,325.0,6.23,12.49,47.59359,-54.27349
